Content
SEND FEEDBACK

Daily
Averages
Monthly
Summary
Canada

QUEBEC CITY, QUEBEC


Home > North America > Canada > Quebec
Elevation: 239 feet     Latitude: 46 48N     Longitude: 071 23W

WEATHER
 
SELECT A DAY
Number of Records: 192,457;   Date Range: 6/30/96 - 8/20/14
 
SHARE

PRINT THIS DATA

[ ← Previous Day ]
WEATHER ALMANAC - FEBRUARY 18, 2013
[ Next Day → ]
[ °C ]   °F
Weather ElementAverageHighLow
Temperature11.6 °F21.2 °F (3:00 pm)1.4 °F (5:00 am)
Dewpoint-1.8 °F6.8 °F (3:00 pm)-11.2 °F (6:00 am)
Humidity51.8 %61 % (5:00 am)36 % (4:00 pm)
Barometer29.85 in30.06 in (10:00 pm)29.63 in (1:00 am)
Wind Speed20.1 mph28.8 mph (10:00 am)
Wind Gust38 mph (10:00 am)
Weather ElementAverage
Visibility22.2 mi
Wind DirectionWSW (248.4 °)

Weather ElementTotal
Precipitation---
Heating Degree Days53.7 (Base 65)
Averaged from 31 records on February 18, 2013
WEATHER CONDITIONS BREAKOUT
WIND DIRECTION BREAKOUT
WEATHER BY HOUR - FEBRUARY 18, 2013
[ °C ]   °F
Local TimeTemperatureDewpointHumidityBarometerVisibilityWind DirectionWind SpeedGust SpeedPrecipitationEventsConditions
1:00 AM8.0 °F-3.0 °F48 %29.63 inWest (270°)15.0 mph
1:00 AM6.8 °F-5.8 °F56 %29.63 in15.0 miWest (260°)16.1 mph23.0 mphOvercast
2:00 AM6.8 °F-7.6 °F52 %29.65 in15.0 miWest (260°)16.1 mphMostly Cloudy
3:00 AM5.0 °F-9.4 °F52 %29.68 in15.0 miWest (260°)19.6 mphScattered Clouds
4:00 AM3.0 °F-6.0 °F53 %29.70 inWest (260°)15.0 mph
4:00 AM3.2 °F-9.4 °F56 %29.70 in15.0 miWSW (250°)20.7 mph29.9 mphPartly Cloudy
5:00 AM1.4 °F-9.4 °F61 %29.73 in15.0 miWSW (250°)24.2 mph29.9 mphPartly Cloudy
6:00 AM1.4 °F-11.2 °F56 %29.76 in15.0 miWSW (240°)24.2 mph31.1 mphScattered Clouds
7:00 AM2.0 °F-7.0 °F52 %29.79 inWSW (250°)16.1 mph
7:00 AM1.4 °F-11.2 °F56 %29.79 in30.0 miWSW (250°)23.0 mphPartly Cloudy
8:00 AM3.2 °F-9.4 °F56 %29.81 in30.0 miWSW (250°)25.3 mph32.2 mphPartly Cloudy
9:00 AM5.0 °F-7.6 °F56 %29.82 in30.0 miWSW (250°)19.6 mph32.2 mphPartly Cloudy
10:00 AM9.0 °F-3.0 °F43 %29.83 inWSW (240°)16.1 mph
10:00 AM8.6 °F-4.0 °F57 %29.82 in30.0 miWSW (240°)28.8 mph38.0 mphPartly Cloudy
11:00 AM12.2 °F-2.2 °F53 %29.83 in30.0 miWSW (240°)28.8 mphPartly Cloudy
12:00 PM14.0 °F-0.4 °F53 %29.84 in30.0 miWSW (240°)24.2 mph32.2 mphPartly Cloudy
1:00 PM17.0 °F4.0 °F41 %29.85 inWest (260°)17.3 mph
1:00 PM17.6 °F3.2 °F53 %29.85 in30.0 miWSW (240°)26.5 mph33.4 mphPartly Cloudy
2:00 PM19.4 °F-0.4 °F42 %29.86 in30.0 miWSW (240°)24.2 mph31.1 mphPartly Cloudy
3:00 PM21.2 °F6.8 °F54 %29.88 in30.0 miWSW (250°)21.9 mph35.7 mphPartly Cloudy
4:00 PM21.0 °F5.0 °F36 %29.91 inWest (260°)15.0 mph
4:00 PM21.2 °F5.0 °F50 %29.91 in30.0 miWest (260°)18.4 mph32.2 mphPartly Cloudy
5:00 PM19.4 °F5.0 °F54 %29.94 in30.0 miWSW (240°)19.6 mph27.6 mphPartly Cloudy
6:00 PM19.4 °F3.2 °F49 %29.98 in15.0 miSW (230°)23.0 mph28.8 mphClear
7:00 PM19.0 °F4.0 °F37 %30.00 inSW (230°)13.8 mph
7:00 PM17.6 °F3.2 °F53 %30.00 in15.0 miWSW (240°)20.7 mph27.6 mphClear
8:00 PM15.8 °F3.2 °F58 %30.01 in15.0 miWSW (250°)24.2 mphClear
9:00 PM15.8 °F3.2 °F58 %30.04 in15.0 miWSW (250°)19.6 mph27.6 mphClear
10:00 PM15.0 °F3.0 °F46 %30.05 inWSW (250°)12.7 mph
10:00 PM14.0 °F1.4 °F57 %30.06 in15.0 miWSW (250°)18.4 mphClear
11:00 PM14.0 °F1.4 °F57 %30.06 in15.0 miWSW (240°)15.0 mphClear
Hourly data recorded from CYQB, located miles away from Quebec City, Quebec







STORIES FROM OUR PARTNERS